Location: *
(44.3925°N, 5.4708°E)
Time: 21:47:34
(UTC+00:00)

ISS - Pass Details

Date: 18 September 2019
Orbit: 411 x 421 km, 51.6° (Epoch: 20 October)

Event Time Altitude Azimuth Distance (km) Brightness Sun altitude
Rises 19:17:23 0° 213° (SSW) 2,329 0.2 -17.1°
Reaches altitude 10° 19:19:36 10° 202° (SSW) 1,472 -1.0 -17.5°
Enters shadow 19:21:00 20° 184° (S) 1,011 -2.0 -17.8°
